Skip Page Navigation
NASA JPL Caltech
NASA Logo - Jet Propulsion Laboratory + View the NASA Portal
+ Center for Near-Earth Object Studies
JPL Home Earth Solar System Stars & Galaxies Technology
JPL Solar System Dynamics
BODIES ORBITS EPHEMERIDES TOOLS PHYSICAL DATA DISCOVERY FAQ SITE MAP
JPL Small-Body Database Browser
Search: [ help ]  
382294 (2012 UN160)
Classification: Main-belt Asteroid          SPK-ID: 2382294
Ephemeris | Orbit Diagram | Orbital Elements | Mission Design | Physical Parameters | Discovery Circumstances | Close-Approach Data ]

[ hide orbit diagram ]

For accurate long-term ephemerides, please instead use our Horizons system.This orbit viewer was implemented using two-body methods, and hence should not be used for determining accurate long-term trajectories (over several years or decades) or planetary encounter circumstances.


[ revert to old Java-based viewer ]

Orbital Elements at Epoch 2459000.5 (2020-May-31.0) TDB
Reference: JPL 13 (heliocentric ecliptic J2000)
 Element Value Uncertainty (1-sigma)   Units 
e .09352435058410401 8.9543e-08  
a 3.080010378335762 5.3492e-08 au
q 2.791954407909609 2.9458e-07 au
i 8.764541917970027 1.1066e-05 deg
node 17.90181838305842 4.1946e-05 deg
peri 207.5637068941462 6.6929e-05 deg
M 311.6662795248384 5.6222e-05 deg
tp 2459265.578449757254
(2021-Feb-20.07844976)
0.00031074 TDB
period 1974.36160457897
5.41
5.1434e-05
1.408e-07
d
yr
n .1823374194296944 4.7501e-09 deg/d
Q 3.368066348761914 5.8495e-08 au
  Orbit Determination Parameters
   # obs. used (total)      169  
   data-arc span      6793 days (18.60 yr)  
   first obs. used      2001-09-12  
   last obs. used      2020-04-18  
   planetary ephem.      DE431  
   SB-pert. ephem.      SB431-N16  
   condition code      0  
   norm. resid. RMS      .59293  
   source      ORB  
   producer      Otto Matic  
   solution date      2020-May-22 00:42:12  

Additional Information
 Earth MOID = 1.78696 au 
 Jupiter MOID = 1.62196 au 
 T_jup = 3.204 
[ show covariance matrix ]

Ephemeris | Orbit Diagram | Orbital Elements | Mission Design | Physical Parameters | Discovery Circumstances | Close-Approach Data ]

Physical Parameter Table
Parameter Symbol Value Units Sigma Reference Notes
absolute magnitude H 15.9   n/a MPO423413  

382294 (2012 UN160)          Discovered 2001-Sep-12 by Spacewatch at Kitt Peak
Reference: Last Updated: 2013-12-19

[ show close-approach data ]
Ephemeris | Orbit Diagram | Orbital Elements | Mission Design | Physical Parameters | Discovery Circumstances | Close-Approach Data ]
ABOUT SSD CREDITS/AWARDS PRIVACY/COPYRIGHT GLOSSARY LINKS
FirstGov 2020-Aug-07 16:32 UT
(server date/time)  
NASA Home Page
Site Manager:   Ryan S. Park
Webmaster  Alan B. Chamberlin